Regional Weather Roundup
Issued by NWS Upton, NY

Current Version | Previous Version | Text Only | Print | Product List | Glossary Off
Versions: 1 2 3 4 5 6 7 8 9 10 11 12 13 14 15 16 17 18 19 20 21 22 23 24 25 26 27 28 29 30 31 32 33 34 35 36 37 38 39 40 41 42 43 44 45 46 47 48 49 50
438 ASUS41 KOKX 082108 RWROKX REGIONAL WEATHER ROUNDUP NATIONAL WEATHER SERVICE NEW YORK NY 400 PM EST THU DEC 08 2016 NOTE: "FAIR" INDICATES FEW OR NO CLOUDS BELOW 12,000 FEET WITH NO SIGNIFICANT WEATHER AND/OR OBSTRUCTIONS TO VISIBILITY. NYZ071-072-176-178-NJZ106-104-082200- NEW YORK CITY METRO AREA CITY SKY/WX TMP DP RH WIND PRES REMARKS Central Park N/A 45 18 33 MISG N/A Wall St Helipt PTCLDY 44 24 45 W14G25 29.91S Bronx Bot Gard NOT AVBL LaGuardia APRT CLOUDY 44 18 35 W14G23 29.90R Kennedy INTL CLOUDY 44 18 35 W15 29.91R Breezy Point N/A 41 N/A N/A W12G20 N/A Newark/Liberty CLOUDY 42 16 34 W17G24 29.91R Teterboro CLOUDY 43 17 35 SW9 29.89S $$ NYZ177-179-078>081-082200- LONG ISLAND NEW YORK CITY SKY/WX TMP DP RH WIND PRES REMARKS Jones Beach N/A 43 N/A N/A W14 N/A Matinecock PT NOT AVBL Farmingdale MOCLDY 42 21 43 W13 29.89S MacArthur/ISP CLOUDY 41 20 43 W10G21 29.88R Shirley CLOUDY 41 23 48 W9 29.88R Westhampton CLOUDY 42 21 43 W14G23 29.88R Southampton NOT AVBL Bridgehampton NOT AVBL East Hampton CLOUDY 42 29 61 W7 29.85S Montauk N/A 44 29 55 W14G25 29.85S $$ NYZ052-065-067-082200- HUDSON VALLEY CITY SKY/WX TMP DP RH WIND PRES REMARKS White Plains PTCLDY 39 20 46 W5 29.86S Newburgh PTCLDY 39 23 52 W14G23 29.88R WCI 31 Montgomery MOCLDY 41 21 44 NW12 29.87R Poughkeepsie PTCLDY 40 18 41 W10 29.87R WCI 33 Albany PTCLDY 36 22 56 W13 29.86R WCI 27 $$ NJZ001-105-106-008-010-013-015-019>022-104-082200- NEW JERSEY CITY SKY/WX TMP DP RH WIND PRES REMARKS Newark/Liberty CLOUDY 42 16 34 W17G24 29.91R Teterboro CLOUDY 43 17 35 SW9 29.89S Caldwell CLEAR 41 18 39 W8 29.91R Somerville CLOUDY 41 18 39 VRB6 29.91R Linden N/A 41 16 35 NW12G26 29.91S Sussex CLEAR 40 19 43 VRB6 29.89R Andover N/A 39 19 44 NW12G17 29.90R WCI 32 Trenton PTCLDY 42 17 36 NW12 29.94R Millville MOCLDY 42 29 59 W8 29.97R Atlantic City MOCLDY 43 29 57 W7 29.96R Wrightstown CLEAR 42 20 40 NW15G22 29.92R Toms River CLOUDY 42 23 46 W9 29.94R Belmar CLOUDY 41 22 46 W10 29.93R $$ PAZ047>061-062-071-082200- EASTERN PENNSYLVANIA CITY SKY/WX TMP DP RH WIND PRES REMARKS Philadelphia MOCLDY 45 18 34 W14 29.97R Allentown CLEAR 41 19 41 W14G23 29.93R Scranton MOCLDY 37 16 42 W13G22 29.90R WCI 29 $$ CTZ002-004>006-009-010-012-RIZ004-006-007-MAZ004-011-015-082200- SOUTHERN NEW ENGLAND IN CT CITY SKY/WX TMP DP RH WIND PRES REMARKS Bradley INTL MOCLDY 39 29 67 NW15G23 29.84R WCI 31 Hartford PTCLDY 42 24 49 W8 29.83F Danbury CLEAR 40 22 48 W9 29.86R WCI 34 Wtrbury/Oxford PTCLDY 39 21 48 W8 29.85R WCI 34 Bridgeport CLEAR 43 25 49 W9G17 29.86S Meriden CLEAR 42 22 44 W8 29.85R New Haven PTCLDY 42 25 50 W6 29.86R Chester N/A 39 21 48 W6G12 29.84R WCI 35 Groton MOCLDY 45 26 47 W12 29.83S Wilimantic PTCLDY 42 26 53 W3 29.83S IN RI CITY SKY/WX TMP DP RH WIND PRES REMARKS Providence PTCLDY 41 28 60 W9 29.82R Block Island CLOUDY 43 27 53 W14G24 29.83S Westerly CLOUDY 43 24 47 VRB7 29.84R IN MA CITY SKY/WX TMP DP RH WIND PRES REMARKS Boston MOCLDY 41 27 57 W10G21 29.80S Worcester PTCLDY 34 27 75 W8 29.78R WCI 27 Westfield MOCLDY 38 27 64 W7 29.82R WCI 33 Provincetown CLOUDY 43 31 62 W13 29.79S Nantucket CLOUDY 46 28 49 W16G24 29.80S $$ ANZ330-335-338-340-345-350-353-355-082200- COASTAL MARINE OBSERVATIONS STATION/POSITION TIME SKY/WX TEMP WIND PRES VSBY WAVE AIR SEA DIR/SP/G HT/PER (UTC) (F) (DEG/KT/KT) (MB) (MI) (FT/S) NY HARB ENTRANCE 1950 45 52 270/ 17/ 23 1011.9 3/ 8 20 S FIRE ISLAND 1950 45 53 270/ 21/ 25 1011.7 4/ 5 GREAT SOUTH BAY 2015 43 43 N/A 23 SSW MONTAUK P 1950 46 54 250/ 19/ 23 1010.5 3/ 9 15 E BARNEGAT LI 2030 53 N/A 3/ 9 HUDSON CANYON 1950 48 56 1012.2 5/ 5 KINGS POINT 2042 43 47 1012.1 EXECUTION ROCKS 2045 43 260/ 14/ 19 N/A CENTRAL LI SOUND NOT AVBL EASTERN LI SOUND NOT AVBL ROBBINS REEF 2042 43 290/ 17/ 21 1012.8 $$ >>>>>>>>>>>>>>>>>>>>>>>>>>>> KEY <<<<<<<<<<<<<<<<<<<<<<<<<<< > < > SKY/WX - Sky Condition/Present Weather < > TMP - Temperature in Fahrenheit < > DP - Dew Point in Fahrenheit < > RH - Relative Humidity in Percent < > WIND - Direction (from) and Speed in MPH < > PRES - Mean Sea Level Pressure (inches of Hg) < > WCI - Wind Chill Index < > VSB - VISIBILITY IN MILES < > HX - HEAT INDEX < > TC - TEMPERATURE IN CELSIUS < > VRB - VARIABLE WIND DIRECTION < > < >>>>>>>>>>>>>>>>>>>>>>>>>>>> KEY <<<<<<<<<<<<<<<<<<<<<<<<<<<

USA.gov is the U.S. government's official web portal to all federal, state and local government web resources and services.